Weather History for KPDT - June, 2014

Change the Weather History Date:

Monday, June 23, 2014

  Actual Average Record
Temperature  
Mean Temperature 71 °F 67 °F  
Max Temperature 91 °F 81 °F 102 °F (1970)
Min Temperature 50 °F 53 °F 40 °F (1920)
Degree Days  
Heating Degree Days 0 2  
Month to date heating degree days 42 73  
Since 1 June heating degree days 42 73  
Since 1 July heating degree days 5485 5266  
Cooling Degree Days 6 3  
Month to date cooling degree days 43 49  
Year to date cooling degree days 65 72  
Since 1 June cooling degree days 43 49  
Growing Degree Days 20 (Base 50)    
Moisture  
Dew Point 36 °F    
Average Humidity 41    
Maximum Humidity 71    
Minimum Humidity 10    
Precipitation  
Precipitation 0.00 in 0.02 in 0.50 in (1900)
Month to date precipitation 0.47 0.85  
Year to date precipitation 6.94 7.26  
Snow  
Snow 0.00 in 0.00 in 0.00 in (2002)
Month to date snowfall 0.0 0.0  
Year to date snowfall 15.2 7.7  
Since 1 July snowfall 21.7 15.2  
Snow Depth 0.00 in    
Sea Level Pressure  
Sea Level Pressure 29.89 in    
Wind  
Wind Speed 10 mph (SW)    
Max Wind Speed 32 mph    
Max Gust Speed 43 mph    
Visibility 10 miles    
Events      
T = Trace of Precipitation, MM = Missing Value Source: NWS Daily Summary

Daily Weather History Graph

Daily Weather History Graph

Search for Another Location

Airport or City:

Trip Planner

Search our weather history database for the weather conditions in past years. The results will help you decide how hot, cold, wet, or windy it might be!

Date:

Astronomy

Jun. 23, 2014 Rise Set
Actual Time 5:06 AM PDT 8:48 PM PDT
Civil Twilight 4:28 AM PDT 9:27 PM PDT
Nautical Twilight 3:36 AM PDT 10:18 PM PDT
Astronomical Twilight 2:26 AM PDT 11:28 PM PDT
Moon 2:44 AM PDT (6/23) 5:27 PM PDT (6/23)
Length of Visible Light 16h 59m
Length of Day
15h 42m
Waning Crescent, 12% of the Moon is Illuminated
Jun 23
Waning Crescent
Jun 27
New
Jul 5
First Quarter
Jul 12
Full
Jul 18
Last Quarter

Hourly Weather History & Observations

Time (PDT) Temp. Dew Point Humidity Pressure Visibility Wind Dir Wind Speed Gust Speed Precip Events Conditions
12:53 AM 59.0 °F 37.9 °F 46% 29.90 in 10.0 mi SE 10.4 mph - N/A   Clear
1:53 AM 57.9 °F 37.9 °F 47% 29.90 in 10.0 mi SSE 10.4 mph - N/A   Clear
2:53 AM 57.0 °F 39.9 °F 53% 29.91 in 10.0 mi SSE 8.1 mph - N/A   Clear
3:53 AM 57.0 °F 39.9 °F 53% 29.90 in 10.0 mi SSE 10.4 mph - N/A   Clear
4:53 AM 50.0 °F 41.0 °F 71% 29.91 in 10.0 mi ESE 8.1 mph - N/A   Clear
5:53 AM 53.1 °F 42.1 °F 66% 29.91 in 10.0 mi ESE 6.9 mph - N/A   Clear
6:53 AM 59.0 °F 37.9 °F 46% 29.93 in 10.0 mi SSE 6.9 mph - N/A   Clear
7:53 AM 63.0 °F 37.9 °F 40% 29.94 in 10.0 mi SSE 3.5 mph - N/A   Clear
8:53 AM 72.0 °F 37.9 °F 29% 29.94 in 10.0 mi Calm Calm - N/A   Clear
9:53 AM 75.9 °F 35.1 °F 23% 29.94 in 10.0 mi North - - N/A   Clear
10:53 AM 78.1 °F 35.1 °F 21% 29.94 in 10.0 mi West 8.1 mph - N/A   Clear
11:53 AM 82.9 °F 34.0 °F 17% 29.92 in 10.0 mi Variable 3.5 mph - N/A   Clear
12:53 PM 84.0 °F 33.1 °F 16% 29.90 in 10.0 mi ENE 4.6 mph - N/A   Clear
1:53 PM 86.0 °F 30.2 °F 13% 29.92 in 10.0 mi Variable 4.6 mph - N/A   Clear
2:53 PM 87.8 °F 26.6 °F 11% 29.90 in 10.0 mi North 5.8 mph - N/A   Clear
3:53 PM 89.1 °F 27.0 °F 11% 29.83 in 10.0 mi NNE 3.5 mph - N/A   Clear
4:53 PM 90.0 °F 28.9 °F 11% 29.83 in 10.0 mi NNW 10.4 mph - N/A   Clear
5:53 PM 88.0 °F 28.0 °F 12% 29.82 in 10.0 mi NW 13.8 mph - N/A   Clear
6:53 PM 86.0 °F 27.0 °F 12% 29.81 in 10.0 mi NNW 10.4 mph - N/A   Clear
7:53 PM 82.0 °F 30.0 °F 15% 29.82 in 10.0 mi NNW 4.6 mph - N/A   Clear
8:53 PM 78.1 °F 32.0 °F 19% 29.82 in 10.0 mi WNW 5.8 mph - N/A   Clear
9:53 PM 73.9 °F 44.1 °F 34% 29.85 in 10.0 mi West 21.9 mph 28.8 mph N/A   Clear
10:53 PM 72.0 °F 44.1 °F 37% 29.86 in 10.0 mi West 27.6 mph 36.8 mph N/A   Clear
11:53 PM 70.0 °F 46.9 °F 44% 29.88 in 10.0 mi WSW 27.6 mph 36.8 mph N/A   Clear